Rbgn^[z[y[W
メイン
   新天体発見情報
     Comet P/2021 L2 (Leonard)
投稿するにはまず登録を

フラット表示 前のトピック | 次のトピック
投稿者 スレッド
佐藤裕久
投稿日時: 2021-7-5 23:50
モデレータ
登録日: 2005-6-12
居住地: 日本
投稿: 2585
オンライン
Comet P/2021 L2 (Leonard)

G. J. Leonard (月惑星研究所, アリゾナ大学)の通報によると、6月8日、Mt Lemmonサーベイ
の1.5-m 反射望遠鏡で得たCCD画像から彗星を発見した。
この彗星は、30秒露出4枚で、中程度に集光した5"のコマとp.a. 230°に8"と短い尾があった。
小惑星センターのPCCP webpageに公表後、L. Buzzi (Varese, イタリア: 測定はA. Aletti, 
6月13.0日、60秒露出52枚のスタック, 0.84-m f/3.5 反射望遠鏡, 9"のコマが見え、西に向かっ
て伸びているかもしれない。6月19.0日、60秒露出57枚のスタックでは、20.4等の集光した6"の
コマの半値全幅(FWHM)は3".9のシーイングで4".9で、尾はない)らCCD位置観測者によって彗星状
と観測された。

彗星機能の報告は次の通り:

OC   Date        Reporter           Coma    Tail    PA          Exposures
204  2021-06-13  A. Aletti          9"                           52x60s
204  2021-06-19  A. Aletti          6"
L81  2021-06-21  A. Aletti          6"      12"     240          30x90s

発見位置は次のとおり、

     2021 UT             R.A. (2000) Decl.       Mag.   Observer
     June  8.39571   21 27 26.88   + 1 28 31.7   20.3   Leonard
           8.40153   21 27 27.16   + 1 28 39.4   20.7     "
           8.40735   21 27 27.40   + 1 28 47.9   20.3     "
           8.41317   21 27 27.66   + 1 28 55.5   20.1     "

MPCの楕円軌道要素、位置推算表は次のとおり、

Orbital elements:
    P/2021 L2 (Leonard)                                                         
Epoch 2021 July 5.0 TT = JDT 2459400.5                                          
T 2021 July 24.57694 TT                                 Rudenko                 
q   1.9385231            (2000.0)            P               Q                  
n   0.12078274     Peri.   51.55024     +0.69353884     +0.62465112             
a   4.0532132      Node   266.67866     -0.72039858     +0.59755429             
e   0.5217318      Incl.   21.07021     -0.00545528     +0.50273239             
P   8.16                                                                        
From 60 observations 2021 May 11-June 21, mean residual 0".4.                   
                                                                                
    P/2021 L2 (Leonard)                                                         
Epoch 2029 Sept. 21.0 TT = JDT 2462400.5                                        
T 2029 Sept. 8.47807 TT                                 Rudenko                 
q   1.9207964            (2000.0)            P               Q                  
n   0.12161425     Peri.   52.07518     +0.69358084     +0.62473769             
a   4.0347169      Node   266.18640     -0.72037143     +0.59923942             
e   0.5239328      Incl.   21.06777     -0.00325827     +0.50061456             
P   8.10                                                                        
From 60 observations 2021 May 11-June 21, mean residual 0".4.                   
                                                                                
    P/2021 L2 (Leonard)                                                         
Epoch 2021 July 5.0 TT = JDT 2459400.5                                          
T 2021 July 24.57694 TT                                 Rudenko                 
q   1.9385231            (2000.0)            P               Q                  
n   0.12078274     Peri.   51.55024     +0.69353884     +0.62465112             
a   4.0532132      Node   266.67866     -0.72039858     +0.59755429             
e   0.5217318      Incl.   21.07021     -0.00545528     +0.50273239             
P   8.16                                                                        
From 60 observations 2021 May 11-June 21, mean residual 0".4.                   
                                                                                
Ephemeris:
Date    TT    R. A. (2000) Decl.     Delta      r    Elong.  Phase   m1
2021 05 23    21 11 55.6 -04 33 35   1.5373  2.0164   102.6    29.3  21.0
...
2021 06 07    21 26 21.4 +00 56 42   1.3782  1.9842   111.1    28.5  20.7
...
2021 06 15    21 31 56.5 +04 00 58   1.3035  1.9703   115.8    27.7  20.5
...
2021 06 21    21 35 03.0 +06 20 42   1.2528  1.9615   119.3    26.9  20.4
2021 06 22    21 35 28.4 +06 44 00   1.2448  1.9601   119.9    26.7  20.4
2021 06 23    21 35 52.2 +07 07 18   1.2369  1.9588   120.4    26.6  20.4
...
2021 06 29    21 37 39.6 +09 26 12   1.1927  1.9519   123.9    25.6  20.3
...
2021 07 07    21 38 25.1 +12 26 29   1.1417  1.9449   128.5    24.2  20.2
...
2021 07 22    21 34 52.9 +17 29 45   1.0731  1.9387   136.2    21.3  20.0

(MPEC 2021-M74、CBET 4984)

フラット表示 前のトピック | 次のトピック

題名 投稿者 日時
 » Comet P/2021 L2 (Leonard) 佐藤裕久 2021-7-5 23:50

投稿するにはまず登録を
 
© 1999 Tsutomu Seki.